Location: Hillern
(53.0557°N, 9.8577°E)
Time: 17:34:29
(UTC+00:00)

Lacrosse 4 Rocket - Pass Details

Date: 19 May 2025
Orbit: 513 x 576 km, 68.0° (Epoch: 17 June)

Event Time Altitude Azimuth Distance (km) Brightness Sun altitude
Rises 20:17:17 0° 246° (WSW) 2,643 5.1 -7.3°
Reaches altitude 10° 20:19:37 10° 257° (WSW) 1,766 4.3 -7.5°
Maximum altitude 20:23:09 31° 321° (NW) 960 3.5 -7.9°
Drops below altitude 10° 20:26:45 10° 24° (NNE) 1,806 4.3 -8.2°
Sets 20:29:11 0° 35° (NE) 2,714 5.1 -8.5°
